SCP
0 0 0 0 0 0 0 0 0 0 0 0 0 0 0 0 0 0 0 0 0 0 0 0 0 0 0 0 0 0 0 0 0 0 0 0 0 0 0 0 0 0 0
0 0 0 0 0 0 0 0 0 0 0 0 0 0 0 0 0 0 0 0 0 0 0 0 0 0 0 0 0 0 0 0 0 0 0 0 0 0 0 0 0 0 0
0 0 0 0 0 0 0 0 0 0 0 0 0 0 0 0 0 0 0 0 0 0 0 0 0 0 0 0 0 0 0 0 0 0 0 0 0 0 0 0 0 0 0
0 0 0 0 0 0 0 0 0 0 0 0 0 0 0 0 0 0 0 0 0 0 0 0 0 0 0 0 0 0 0 0 0 0 0 0 0 0 0 0 0 0 0
0 0 0 0 0 0 0 0 0 0 0 0 0 0 0 0 0 0 0 0 0 0 0 0 0 0 0 0 0 0 0 0 0 0 0 0 0 0 0 0 0 0 0
0 0 0 0 0 0 0 0 0 0 0 0 0 0 0 0 0 0 0 0 0 0 0 0 0 0 0 0 0 0 0 0 0 0 0 0 0 0 0 0 0 0 0
0 0 0 0 0 0 0 0 0 0 0 0 0 0 0 0 0 0 0 0 0 0 0 0 0 0 0 0 0 0 0 0 0 0 0 0 0 0 0 0 0 0 0
0 0 0 0 0 0 0 0 0 0 0 0 0 0 0 0 0 0 0 0 0 0 0 0 0 0 0 0 0 0 0 0 0 0 0 0 0 0 0 0 0 0 0
0 0 0 0 0 0 0 0 0 0 0 0 0 0 0 0 0 0 0 0 0 0 0 0 0 0 0 0 0 0 0 0 0 0 0 0 0 0 0 0 0 0 0
0 0 0 0 0 0 0 0 0 0 0 0 0 0 0 0 0 0 0 0 0 0 0 0 0 0 0 0 0 0 0 0 0 0 0 0 0 0 0 0 0 0 0
0 0 0 0 0 0 0 0 0 0 0 0 0 0 0 0 0 0 0 0 0 0 0 0 0 0 0 0 0 0 0 0 0 0 0 0 0 0 0 0 0 0 0
0 0 0 0 0 0 0 0 0 0 0 0 0 0 0 0 0 0 0 0 0 0 0 0 0 0 0 0 0 0 0 0 0 0 0 0 0 0 0 0 0 0 0
0 0 0 0 0 0 0 0 0 0 0 0 0 0 -0 -0 -0 0 0 0 0 0 0 0 0 0 0 0 0 0 0 0 0 0 0 0 0 0 0 0 0 0 0
0 0 0 0 0 0 0 -0 -0 0 0 0 0 0 0 0 0 0 0 0 0 0 0 0 0 0 0 0 0 0 0 0 0 0 0 0 0 0 0 0 0 0 0
0 0 0 0 0 0 0 -0 -0 0 0 0 0 0 0 0 0 0 0 0 0 0 0 0 0 0 0 0 0 0 0 0 0 0 0 0 0 0 0 0 0 0 0
0 0 0 0 0 0 0 0 0 0 0 0 0 0 0 0 0 0 0 0 0 0 0 0 0 0 0 0 0 0 0 0 0 0 0 0 0 0 0 0 0 0 0
0 0 0 0 0 0 0 0 0 0 0 0 0 0 0 0 0 0 0 0 0 0 0 0 0 0 0 0 0 0 0 0 0 0 0 0 0 0 0 0 0 0 0
0 0 0 0 0 0 0 0 0 0 0 0 0 -0 0 0 0 0 0 0 0 0 0 0 0 0 0 0 0 0 0 0 0 0 0 0 0 0 0 0 0 0 0
0 0 0 0 0 0 0 0 0 0 0 0 0 -0 0 0 0 0 0 0 0 0 0 0 0 0 0 0 0 0 0 0 0 0 0 0 0 0 0 0 0 0 0
0 0 0 0 0 0 0 0 0 0 0 0 0 0 0 0 0 0 0 0 0 0 0 0 0 0 0 0 0 0 0 0 0 0 0 0 0 0 0 0 0 0 0
0 0 0 0 0 0 0 0 0 0 0 0 0 0 0 0 0 0 0 0 0 0 0 0 0 0 0 0 0 0 0 0 0 0 0 0 0 0 0 0 0 0 0
0 0 0 0 0 0 0 0 0 0 0 0 0 0 0 0 0 0 0 0 0 0 0 0 0 0 0 0 0 0 0 0 0 0 0 0 0 0 0 0 0 0 0
0 0 0 0 0 0 0 0 0 0 0 0 0 0 0 0 0 0 0 0 0 0 0 0 0 0 0 0 0 0 0 0 0 0 0 0 0 0 0 0 0 0 0
0 0 0 0 0 0 0 0 0 0 0 0 0 0 0 0 0 0 0 0 0 0 0 0 0 0 0 0 0 0 0 0 0 0 0 0 0 0 0 0 0 0 0
0 0 0 0 0 0 0 0 0 0 0 0 0 0 0 0 0 0 0 0 0 0 0 0 0 0 0 0 0 0 0 0 0 0 0 0 0 0 0 0 0 0 0
0 0 0 0 0 0 0 0 0 0 0 0 0 0 0 0 0 0 0 0 0 0 0 0 0 0 0 0 0 0 0 0 0 0 0 0 0 0 0 0 0 0 0
Wind_Speed
5 5 6 6 6 5 5 5 5 4 5 6 7 7 7 7 6 4 4 3 3 3 3 4 4 4 3 2 3 3 2 3 6 3 2 2 4 5 5 6 7 7 8
6 6 7 7 6 6 7 6 5 4 4 5 5 6 7 7 6 4 3 1 1 2 2 3 3 3 3 3 3 4 4 4 7 6 3 3 5 4 5 7 6 7 7
7 7 8 8 8 9 8 6 5 4 4 4 4 5 6 5 4 4 3 3 4 4 4 4 4 5 5 4 6 6 6 6 5 7 4 3 4 4 5 6 7 6 6
10 8 9 10 10 10 8 6 6 4 3 3 3 3 3 3 4 4 5 5 6 7 6 5 5 5 5 7 7 8 8 8 7 7 6 4 4 3 4 4 5 5 6
11 11 10 10 10 9 8 7 6 5 4 3 2 1 2 2 3 4 5 6 7 8 7 6 6 8 9 7 7 8 8 7 7 7 6 5 4 4 4 2 3 3 5
10 11 12 11 9 9 10 8 7 6 4 3 1 1 2 2 5 6 6 6 7 7 7 7 8 10 14 14 13 10 8 8 8 6 5 5 4 3 3 3 3 4 4
9 9 10 11 10 10 9 8 9 8 6 5 3 3 4 5 7 7 8 6 6 5 5 6 7 8 9 9 12 13 11 9 8 7 7 5 3 2 3 4 4 4 3
10 10 9 9 10 10 8 10 10 7 7 6 5 6 6 6 8 8 9 7 7 6 5 6 7 5 5 8 9 9 8 7 5 5 6 4 3 2 2 3 3 3 3
11 10 9 9 10 10 9 10 9 8 8 7 7 8 8 8 10 10 9 6 6 6 5 5 6 6 7 10 11 10 9 8 9 11 10 9 9 7 4 4 4 5 4
12 11 10 9 9 9 10 10 8 8 9 9 8 8 10 9 12 13 10 6 7 5 5 5 6 7 8 9 9 10 10 6 6 8 8 9 9 10 10 5 4 3 2
12 11 10 9 8 9 8 8 8 10 10 10 10 8 9 11 13 14 12 7 8 7 5 4 4 9 11 10 9 8 9 8 7 8 7 7 6 6 7 6 4 3 4
11 11 11 9 9 8 7 8 7 10 12 11 10 8 6 8 12 13 13 11 11 8 6 5 5 11 12 12 10 11 12 9 7 7 6 5 5 5 5 6 6 6 5
11 11 10 10 8 7 6 8 6 8 10 10 10 10 8 7 9 12 13 14 13 6 6 9 10 12 12 9 11 11 8 6 6 6 5 4 3 3 3 3 4 5 6
11 11 10 8 8 7 5 5 4 6 9 11 11 11 10 9 8 8 7 8 9 8 8 10 11 11 8 8 7 6 5 5 5 5 4 3 3 3 4 3 3 3 5
11 10 9 8 8 7 6 5 5 6 9 11 12 13 13 12 13 15 13 10 9 9 10 6 4 4 4 4 4 4 4 4 4 3 4 4 4 4 4 3 3 4 4
9 9 8 7 6 6 6 6 8 9 13 16 14 15 14 16 19 19 18 17 17 18 11 7 6 6 6 5 5 4 3 3 3 4 4 4 4 4 4 3 3 3 3
10 9 7 6 7 6 6 5 7 7 10 13 15 16 15 18 21 20 17 17 18 18 8 8 7 7 6 6 5 4 4 4 3 4 5 5 5 4 4 4 3 3 3
10 11 9 7 7 6 6 5 6 6 5 6 9 15 17 19 21 19 19 15 10 9 7 9 8 8 7 7 6 5 5 5 4 4 4 4 4 4 4 4 3 3 2
8 7 6 6 6 6 6 6 6 7 6 7 8 9 14 16 16 20 19 10 13 11 8 9 8 8 7 7 7 6 6 6 5 5 4 4 4 3 3 4 3 4 2
7 11 9 5 5 6 6 6 6 6 6 9 11 11 11 10 9 11 9 9 11 11 10 9 8 8 8 8 7 7 7 6 6 5 5 5 4 4 4 5 4 4 3
5 6 9 6 5 6 6 7 7 6 7 9 11 13 18 14 13 14 12 10 11 11 10 9 8 8 8 7 8 9 9 8 7 7 6 5 5 4 4 4 4 4 4
5 5 4 5 5 5 6 6 6 6 8 11 10 11 17 12 12 12 12 11 10 9 9 9 8 8 8 8 9 9 9 9 8 8 7 6 6 5 5 5 5 5 4
5 5 5 5 5 6 6 6 5 5 8 10 11 12 12 10 11 11 11 11 9 9 8 8 8 8 7 7 8 9 10 10 10 9 9 8 7 7 6 6 7 6 7
5 5 5 5 5 5 5 5 4 6 9 11 11 12 12 11 11 11 11 9 9 8 8 8 8 11 12 9 7 8 9 9 10 9 13 10 10 8 8 8 8 9 8
4 4 5 5 4 4 4 4 4 7 9 10 10 11 11 10 10 10 9 9 10 9 10 9 7 9 12 13 11 10 10 11 10 9 10 10 11 11 10 11 9 10 10
4 4 4 4 4 4 4 4 6 8 9 9 9 10 10 10 10 9 9 9 8 8 8 8 10 11 11 11 13 12 11 11 11 11 9 9 10 10 11 10 13 11 11
Wind_Direction
285 263 252 247 242 241 245 254 264 279 298 313 318 319 318 318 316 307 285 263 235 215 197 187 178 169 162 158 149 136 125 119 117 94 53 42 54 65 59 61 65 66 65
298 275 258 252 244 242 245 250 254 271 289 303 314 319 322 327 330 330 333 357 117 116 125 134 139 129 117 113 111 106 102 107 123 120 79 57 60 59 65 61 55 62 67
311 286 268 253 242 240 241 243 245 258 282 301 314 322 325 335 351 8 28 53 80 82 80 83 88 99 101 101 102 103 103 103 101 110 98 73 70 54 64 63 60 52 57
325 305 281 263 246 239 234 232 234 239 260 287 303 316 335 9 29 40 58 63 69 70 67 69 73 88 106 110 109 109 110 105 100 101 95 79 68 51 65 65 65 49 44
329 323 305 283 259 242 231 224 222 223 231 250 280 325 24 49 68 77 79 82 79 78 70 66 79 100 102 105 116 118 116 110 104 100 94 84 66 58 58 46 69 61 54
324 326 324 309 279 249 235 219 211 212 213 210 212 144 100 103 113 103 100 92 89 91 88 80 82 86 90 89 91 96 111 119 116 107 100 96 84 73 69 63 63 57 42
308 314 325 323 305 274 244 219 209 205 196 190 181 154 137 138 138 122 109 101 96 95 97 94 91 85 89 96 85 78 75 87 111 123 117 117 114 114 106 92 79 74 60
297 301 309 317 318 301 260 229 213 197 191 186 179 166 154 158 150 132 115 103 95 84 85 100 107 98 103 109 99 85 74 67 85 98 111 113 112 116 104 106 109 95 73
285 287 295 302 311 311 286 246 219 198 191 184 177 170 166 167 163 148 132 115 101 84 72 79 103 103 115 118 110 103 91 79 78 85 87 85 80 78 101 106 92 82 57
275 276 280 285 295 304 301 269 224 203 196 184 178 177 174 172 172 161 145 131 117 104 82 70 82 103 114 120 120 119 112 106 106 92 73 60 62 59 57 71 101 102 85
269 270 273 275 281 290 303 288 234 208 193 183 177 177 177 173 172 169 160 144 138 129 119 103 90 103 102 101 104 110 121 119 105 98 87 75 65 59 55 57 59 86 93
266 265 267 268 276 292 303 303 257 215 194 183 173 169 174 171 170 176 169 151 145 138 136 128 114 107 102 99 98 109 110 106 103 98 90 79 71 65 61 65 70 70 69
267 266 265 266 266 270 284 303 284 229 199 183 177 176 174 172 175 175 168 153 146 130 135 135 125 112 101 95 101 104 101 102 103 102 99 86 72 62 78 80 67 70 68
261 263 263 262 263 264 267 282 286 255 212 185 181 177 173 171 170 167 162 151 138 124 125 123 112 103 97 97 90 84 84 95 108 108 102 91 85 86 77 76 71 59 57
256 258 259 256 254 259 261 263 271 263 237 198 187 178 173 178 181 171 164 162 159 151 138 125 119 120 115 108 97 92 93 99 98 102 111 109 100 92 81 73 75 72 64
255 255 252 248 248 249 259 278 267 259 247 221 200 182 181 177 165 166 167 163 155 149 143 149 151 153 153 151 142 128 120 114 112 121 122 118 113 109 104 92 85 87 81
244 248 246 244 245 246 249 268 290 283 244 215 195 183 171 159 157 164 162 154 152 151 151 163 165 168 168 166 163 157 151 142 135 137 132 129 126 123 123 122 120 111 98
241 247 244 238 242 243 244 253 272 274 238 191 186 176 160 158 159 153 140 131 149 174 173 172 174 175 175 176 176 169 156 148 150 152 146 143 142 140 142 148 151 145 130
237 238 236 235 239 241 242 251 262 263 232 183 157 162 160 151 146 148 149 158 170 181 181 177 177 177 181 183 181 176 170 168 168 166 164 160 158 154 155 162 163 157 153
230 240 241 234 239 242 244 251 259 253 219 182 168 160 148 139 145 163 177 173 174 179 180 178 178 179 182 182 180 176 176 176 178 180 177 173 171 173 174 174 177 176 180
222 237 251 249 238 241 246 255 256 241 204 178 168 163 163 165 166 173 181 179 178 179 178 176 176 179 180 178 178 180 183 186 189 192 189 184 180 182 186 186 189 191 184
215 222 230 240 244 242 249 257 250 226 188 169 158 156 166 165 167 171 179 183 182 179 176 174 176 180 179 178 179 182 188 193 195 197 198 195 191 191 186 189 194 194 196
214 225 234 240 242 246 255 259 243 199 170 158 154 157 169 167 168 172 178 179 175 173 170 171 175 180 184 185 184 186 191 198 200 197 197 199 200 199 196 199 201 200 207
215 225 231 239 243 249 254 257 216 169 156 152 155 161 169 169 169 172 173 171 170 170 170 173 180 186 187 188 191 197 203 201 196 199 200 202 204 205 203 206 209 210 214
218 223 228 233 239 243 253 236 176 154 150 152 156 161 166 166 166 168 167 165 166 169 174 176 180 187 193 195 196 202 202 194 193 196 200 206 211 209 208 211 213 214 215
221 222 226 228 230 236 235 190 158 151 150 152 155 159 162 165 164 164 162 162 165 169 174 181 188 190 193 199 206 205 198 194 195 196 201 208 213 216 213 218 219 218 217